Regional Weather Roundup
Issued by NWS

Home | Current Version | Previous Version | Graphics & Text | Print | Product List | Glossary On
Versions: 1 2 3 4 5 6 7 8 9 10 11 12 13 14 15 16 17 18 19 20 21 22 23 24 25 26 27 28 29 30 31 32 33 34 35 36 37 38 39 40 41 42 43 44 45 46 47 48 49 50
000
ASUS43 KFSD 190110
RWRSD

WEATHER ROUNDUP FOR SOUTH DAKOTA
NATIONAL WEATHER SERVICE SIOUX FALLS SD
800 PM CDT THU SEP 18 2014

NOTE: "FAIR" INDICATES FEW OR NO CLOUDS BELOW 12,000 FEET WITH NO
SIGNIFICANT WEATHER AND/OR OBSTRUCTIONS TO VISIBILITY.


SDZ001>005-009-010-012>017-190200-
NORTHWEST AND NORTH CENTRAL SOUTH DAKOTA

CITY           SKY/WX    TMP DP  RH WIND       PRES   REMARKS
BUFFALO          N/A     75  60  59 E7        29.68
FAITH            N/A     73  63  70 SE9       29.72S
MOBRIDGE       CLOUDY    71  61  70 SE12      29.69F
$$

SDZ012>016-024>037-041>051-057-063-072>074-190200-
SOUTHWEST AND SOUTH CENTRAL SOUTH DAKOTA

CITY           SKY/WX    TMP DP  RH WIND       PRES   REMARKS
RAPID CTY ARPT PTCLDY    78  54  43 SE6       29.72S
PIERRE         PTCLDY    74  63  68 SE9       29.72S
CUSTER         CLOUDY    76  47  35 VRB5      29.91S
ELLSWORTH AFB  MOCLDY    78  55  45 SE10      29.72S
PHILIP         CLEAR     79  64  60 SE10      29.69F
PINE RIDGE     MOCLDY    79  63  57 S16       29.77S
WINNER         FAIR      76  60  57 SE12      29.79S
$$

SDZ004>011-016>023-039-040-190200-
NORTHEAST SOUTH DAKOTA

CITY           SKY/WX    TMP DP  RH WIND       PRES   REMARKS
ABERDEEN       MOCLDY    69  60  73 S10       29.78F
WATERTOWN      PTCLDY    66  56  70 S12       29.87F
SISSETON         N/A     69  58  67 S10       29.81F
$$

SDZ017-020-022-023-036>040-048>070-190200-
SOUTHEAST SOUTH DAKOTA

CITY           SKY/WX    TMP DP  RH WIND       PRES   REMARKS
SIOUX FALLS    MOCLDY    69  55  60 SE12      29.92R
HURON          PTCLDY    70  57  63 SE13G20   29.83F
CHAMBERLAIN    PTCLDY    69  61  75 SE12      29.79F
MITCHELL       PTCLDY    70  59  68 SE12      29.85S
YANKTON        CLEAR     68  57  68 SE8       29.89S
$$

ABBREVIATIONS USED IN REMARKS
   TC - TEMPERATURE IN CELSIUS
  WCI - WIND CHILL INDEX
   HX - HEAT INDEX
  VSB - VISIBILITY




USA.gov is the U.S. government's official web portal to all federal, state and local government web resources and services.